Date String (YYYY-MM-DD hh:mm:ss) UTC,Instrument flags,Ambient pressure (hPa),Sample flow (lpm),Bypass flow (lpm),Sample temperature (°C),Ambient temperature (°C),ASC tube jacket temperature (°C),LED temperature (°C),Box temperature (°C),Sample RH (%),Span deviation,Mass concentration (μg/m³),Mass concentration (μg/m³),Mass concentration (μg/m³)
DateTimeUTC,F1_M11,P_M11,Q1_M11,Q2_M11,T1_M11,T2_M11,T3_M11,T4_M11,T5_M11,U1_M11,ZSPAN_M11,X0_M11,X2_M11,X1_M11
2022-06-13 16:00:00,,0816.0,5.00,0.00,28.9,27.3,00.0,37.8,30.8,12.6,0001.8,0024.59,0009.59,0007.42
2022-06-13 16:01:00,,0816.0,5.01,0.00,28.9,27.5,00.0,37.8,30.8,12.8,0002.8,0025.58,0010.08,0007.83
2022-06-13 16:02:00,,0816.0,5.01,0.00,28.9,27.6,00.0,37.8,30.9,13.4,0002.5,0025.19,0010.56,0008.27
2022-06-13 16:03:00,,0816.0,4.99,0.00,29.0,27.8,00.0,37.8,30.9,14.6,0002.6,0026.61,0011.23,0008.84
2022-06-13 16:04:00,,0816.0,5.01,0.00,29.0,28.0,00.0,37.8,31.0,11.3,0002.8,0028.71,0012.45,0009.98
2022-06-13 16:05:00,,0816.0,5.00,0.00,29.0,27.8,00.0,37.8,31.0,10.0,0002.4,0032.11,0014.18,0011.78
2022-06-13 16:06:00,,0815.9,5.00,0.00,29.0,27.2,00.0,37.7,30.8,10.8,0002.9,0034.09,0015.68,0013.29
2022-06-13 16:07:00,,0815.9,4.99,0.00,29.0,27.0,00.0,37.7,30.8,12.1,0003.1,0036.06,0016.58,0014.27
2022-06-13 16:08:00,,0816.0,4.99,0.00,28.9,27.1,00.0,37.7,30.7,13.0,0002.8,0035.50,0017.15,0014.85
2022-06-13 16:09:00,,0816.0,5.02,0.00,28.9,27.2,00.0,37.7,30.7,13.0,0003.3,0035.23,0017.42,0015.08
2022-06-13 16:10:00,,0815.9,5.00,0.00,28.9,27.4,00.0,37.7,30.8,12.0,0004.1,0036.46,0017.89,0015.58
2022-06-13 16:11:00,,0815.9,4.99,0.00,28.9,27.5,00.0,37.7,30.8,12.3,0004.0,0037.53,0018.53,0016.20
2022-06-13 16:12:00,,0815.9,4.99,0.00,28.9,27.7,00.0,37.7,30.9,10.9,0003.1,0037.91,0019.33,0017.08
2022-06-13 16:13:00,,0815.9,4.99,0.00,29.0,27.9,00.0,37.8,30.9,10.2,0004.0,0041.01,0020.66,0018.40
2022-06-13 16:14:00,,0815.9,5.00,0.00,29.0,27.8,00.0,37.7,30.9,11.1,0004.6,0040.68,0021.52,0019.28
2022-06-13 16:15:00,,0815.8,5.00,0.00,29.0,27.2,00.0,37.7,30.8,09.7,0005.1,0040.46,0022.51,0020.43
2022-06-13 16:16:00,,0815.8,5.01,0.00,28.9,27.0,00.0,37.6,30.7,09.9,0005.5,0039.16,0023.01,0020.96
2022-06-13 16:17:00,,0815.9,5.00,0.00,28.9,27.0,00.0,37.7,30.7,11.1,0005.8,0039.41,0023.34,0021.32
2022-06-13 16:18:00,,0815.8,4.98,0.00,28.9,27.1,00.0,37.7,30.7,12.2,0005.6,0038.35,0023.18,0021.15
2022-06-13 16:19:00,,0815.8,5.01,0.00,28.8,27.3,00.0,37.7,30.7,12.7,0005.9,0037.41,0022.65,0020.60
2022-06-13 16:20:00,,0815.9,5.00,0.00,28.9,27.5,00.0,37.7,30.8,13.6,0005.6,0036.94,0022.15,0020.17
2022-06-13 16:21:00,,0815.9,4.99,0.00,28.9,27.6,00.0,37.7,30.8,13.1,0005.3,0035.43,0021.51,0019.52
2022-06-13 16:22:00,,0815.9,5.00,0.00,28.9,27.8,00.0,37.7,30.9,11.8,0005.4,0035.61,0021.03,0018.99
2022-06-13 16:23:00,,0815.9,5.00,0.00,28.9,27.4,00.0,37.7,30.8,11.7,0005.3,0035.54,0020.55,0018.50
2022-06-13 16:24:00,,0815.8,4.99,0.00,28.9,26.9,00.0,37.6,30.6,12.5,0005.2,0033.62,0019.75,0017.73
2022-06-13 16:25:00,,0815.8,4.99,0.00,28.8,26.9,00.0,37.6,30.6,10.9,0004.3,0034.25,0019.64,0017.61
2022-06-13 16:26:00,,0815.8,5.00,0.00,28.8,27.0,00.0,37.6,30.6,11.7,0002.5,0034.83,0018.94,0016.86
2022-06-13 16:27:00,,0815.8,5.01,0.00,28.8,27.1,00.0,37.6,30.6,11.0,0001.2,0035.11,0018.29,0016.10
2022-06-13 16:28:00,,0815.8,5.00,0.00,28.8,27.3,00.0,37.6,30.7,12.0,0000.8,0035.46,0017.95,0015.74
2022-06-13 16:29:00,,0815.8,5.01,0.00,28.8,27.5,00.0,37.6,30.7,11.2,0000.9,0036.51,0018.61,0016.36
2022-06-13 16:30:00,,0815.8,4.99,0.00,28.8,27.7,00.0,37.6,30.8,10.4,0001.3,0038.15,0020.28,0018.07
2022-06-13 16:31:00,,0815.7,5.00,0.00,28.9,27.8,00.0,37.7,30.9,10.3,0001.7,0039.26,0021.90,0019.70
2022-06-13 16:32:00,,0815.7,4.99,0.00,28.9,27.5,00.0,37.6,30.8,09.8,0002.3,0039.96,0023.47,0021.36
2022-06-13 16:33:00,,0815.7,5.00,0.00,28.8,27.0,00.0,37.6,30.6,09.7,0002.2,0040.54,0025.09,0023.02
2022-06-13 16:34:00,,0815.7,5.01,0.00,28.8,26.9,00.0,37.6,30.6,09.9,0002.9,0041.75,0026.43,0024.42
2022-06-13 16:35:00,,0815.7,5.00,0.00,28.8,27.0,00.0,37.6,30.6,09.1,0003.4,0042.20,0027.65,0025.66
2022-06-13 16:36:00,,0815.7,5.00,0.00,28.7,27.1,00.0,37.6,30.6,09.2,0003.8,0042.08,0028.50,0026.56
2022-06-13 16:37:00,,0815.7,5.01,0.00,28.8,27.3,00.0,37.6,30.7,09.5,0004.7,0041.61,0029.23,0027.34
2022-06-13 16:38:00,,0815.7,5.01,0.00,28.8,27.5,00.0,37.6,30.7,10.1,0004.7,0042.88,0029.74,0027.89
2022-06-13 16:39:00,,0815.7,4.99,0.00,28.8,27.7,00.0,37.6,30.8,10.1,0004.7,0042.52,0030.25,0028.41
2022-06-13 16:40:00,,0815.7,4.99,0.00,28.9,27.8,00.0,37.6,30.9,10.8,0004.9,0042.52,0030.76,0028.91
2022-06-13 16:41:00,,0815.7,5.02,0.00,28.9,27.8,00.0,37.6,30.9,11.2,0005.0,0043.21,0030.93,0029.12
2022-06-13 16:42:00,,0815.6,5.01,0.00,28.9,27.3,00.0,37.6,30.8,10.8,0005.6,0044.66,0031.29,0029.47
2022-06-13 16:43:00,,0815.6,4.99,0.00,28.8,27.0,00.0,37.5,30.7,11.5,0005.4,0045.90,0031.77,0029.93
2022-06-13 16:44:00,,0815.7,5.01,0.00,28.8,27.0,00.0,37.5,30.7,10.9,0005.5,0045.78,0032.16,0030.30
2022-06-13 16:45:00,,0815.6,5.00,0.00,28.8,27.1,00.0,37.6,30.6,10.4,0005.4,0046.47,0032.51,0030.61
2022-06-13 16:46:00,,0815.6,5.00,0.00,28.8,27.3,00.0,37.6,30.7,09.7,0004.9,0047.04,0032.77,0030.80
2022-06-13 16:47:00,,0815.6,5.00,0.00,28.8,27.4,00.0,37.6,30.7,09.4,0004.3,0047.96,0032.93,0030.95
2022-06-13 16:48:00,,0815.7,4.99,0.00,28.8,27.6,00.0,37.6,30.8,09.8,0003.2,0048.97,0033.07,0031.08
2022-06-13 16:49:00,,0815.6,5.01,0.00,28.9,27.8,00.0,37.6,30.9,09.8,0003.1,0048.57,0033.20,0031.20
2022-06-13 16:50:00,,0815.6,4.99,0.00,28.9,27.8,00.0,37.6,30.9,10.3,0003.3,0049.06,0033.32,0031.30
2022-06-13 16:51:00,,0815.6,4.99,0.00,28.9,27.3,00.0,37.6,30.8,09.9,0002.4,0050.97,0033.40,0031.35
2022-06-13 16:52:00,,0815.6,5.00,0.00,28.8,27.0,00.0,37.5,30.7,10.0,0002.1,0050.69,0033.43,0031.37
2022-06-13 16:53:00,,0815.7,5.00,0.00,28.8,27.0,00.0,37.5,30.7,10.8,0001.5,0049.78,0033.32,0031.24
2022-06-13 16:54:00,,0815.9,5.00,0.00,28.8,27.1,00.0,37.6,30.6,09.5,0001.7,0049.64,0033.18,0031.06
2022-06-13 16:55:00,,0816.1,5.00,0.00,28.8,27.3,00.0,37.6,30.7,09.6,0001.9,0049.95,0033.01,0030.90
2022-06-13 16:56:00,,0816.1,5.00,0.00,28.8,27.4,00.0,37.6,30.7,09.6,0001.7,0049.63,0032.88,0030.78
2022-06-13 16:57:00,,0816.1,5.00,0.00,28.8,27.6,00.0,37.6,30.8,10.5,0001.7,0049.50,0032.70,0030.66
2022-06-13 16:58:00,,0816.0,5.01,0.00,28.9,27.7,00.0,37.6,30.8,10.0,0002.0,0048.90,0032.54,0030.50
2022-06-13 16:59:00,,0816.0,5.00,0.00,28.8,27.2,00.0,37.6,30.7,10.0,0002.6,0048.34,0032.53,0030.45
